This is the latest recevied weather packets stored in our database for station/object LRBC. If no packets are shown the sender has not sent any weather packets the latest 1 day(s).
| Time | Temp. | Humidity | Pressure | Rain* | Wind** | Luminosity | Snow |
|---|---|---|---|---|---|---|---|
| 1778010527 | 16.11° C | 59% | 1013 hPa | - | 4.02 m/s, 160° | - | - |
| 1778009627 | 16.11° C | 59% | 1013 hPa | - | 4.02 m/s, 160° | - | - |
| 1778008727 | 16.11° C | 59% | 1013 hPa | - | 4.02 m/s, 160° | - | - |
| 1778007827 | 16.11° C | 59% | 1013 hPa | - | 4.02 m/s, 160° | - | - |
| 1778006928 | 17.22° C | 52% | 1013 hPa | - | 3.58 m/s, 160° | - | - |
| 1778006028 | 17.22° C | 52% | 1013 hPa | - | 3.58 m/s, 160° | - | - |
| 1778005128 | 17.22° C | 52% | 1012 hPa | - | 3.13 m/s, 170° | - | - |
| 1778004228 | 17.22° C | 52% | 1012 hPa | - | 3.13 m/s, 170° | - | - |
| 1778003322 | 18.89° C | 46% | 1012 hPa | - | 3.58 m/s, 160° | - | - |
| 1778002427 | 18.89° C | 46% | 1012 hPa | - | 3.58 m/s, 160° | - | - |
| 1778001527 | 22.22° C | 36% | 1012 hPa | - | 4.92 m/s, 160° | - | - |
| 1778000628 | 22.22° C | 36% | 1012 hPa | - | 4.92 m/s, 160° | - | - |
| 1777999727 | 22.78° C | 36% | 1012 hPa | - | 4.92 m/s, 160° | - | - |
| 1777998828 | 22.78° C | 36% | 1012 hPa | - | 4.92 m/s, 160° | - | - |
| 1777997928 | 23.89° C | 34% | 1012 hPa | - | 5.81 m/s, 160° | - | - |
| 1777997028 | 23.89° C | 34% | 1012 hPa | - | 5.81 m/s, 160° | - | - |
| 1777996128 | 25° C | 32% | 1012 hPa | - | 4.02 m/s, 150° | - | - |
| 1777995228 | 25° C | 32% | 1012 hPa | - | 4.02 m/s, 150° | - | - |
| 1777994336 | 26.11° C | 26% | 1012 hPa | - | 2.68 m/s, 150° | - | - |
| 1777993428 | 26.11° C | 26% | 1012 hPa | - | 2.68 m/s, 150° | - | - |
| 1777992528 | 26.11° C | 30% | 1012 hPa | - | 2.68 m/s, 160° | - | - |
| 1777991628 | 26.11° C | 30% | 1012 hPa | - | 2.68 m/s, 160° | - | - |
| 1777990728 | 26.11° C | 26% | 1012 hPa | - | 2.24 m/s, 140° | - | - |
| 1777989827 | 26.11° C | 26% | 1012 hPa | - | 2.24 m/s, 140° | - | - |
| 1777988966 | 27.22° C | 23% | 1012 hPa | - | 2.24 m/s, 140° | - | - |
* Rain since midnight (hover to see other rain measurements)
** Current wind speed in m/s (hover to see current wind gust speed)